Probability
0 0 0 0 0 0 0 0 0 0 0 0 0 0 0 0 0 0 0 0 2 4 8 11 12 11 12 14 15 14 9 6 5 4 3 3 4 4 4 3 3 2 2 2 1 0 0 0 0
0 0 0 0 0 0 0 0 0 0 0 0 0 0 0 0 0 0 0 1 3 5 8 11 12 11 12 14 15 15 12 7 4 4 4 3 4 4 4 4 4 4 4 3 1 0 0 0 1
0 0 0 0 0 0 0 0 0 0 0 0 0 0 0 0 0 1 1 3 4 6 8 11 12 12 12 14 15 15 14 9 5 5 5 4 4 4 5 6 7 7 7 5 2 0 1 1 1
0 0 0 0 0 0 0 0 0 0 0 0 0 0 0 0 1 3 4 6 7 8 9 11 13 13 14 15 15 14 14 12 9 7 7 5 4 5 6 8 9 10 10 7 3 2 3 2 1
0 0 0 0 0 0 0 0 0 0 0 0 0 0 0 0 2 5 6 7 8 9 10 11 13 14 15 16 16 15 15 14 11 8 7 7 7 7 10 12 13 13 11 7 4 4 5 3 1
0 0 0 0 0 0 0 0 0 0 0 0 0 0 0 2 4 6 8 8 9 10 10 11 12 13 14 17 17 16 16 16 12 8 8 10 10 10 12 16 17 15 12 8 6 8 8 6 4
0 0 0 0 0 0 0 0 0 0 0 0 0 0 1 4 7 9 10 11 12 12 12 12 14 14 14 16 17 15 15 16 13 9 8 10 11 10 11 14 17 16 13 10 8 10 11 9 6
0 0 0 0 0 0 0 0 0 0 0 0 0 0 2 5 8 10 13 15 17 15 14 15 16 16 15 15 14 12 11 12 11 7 6 7 8 7 6 9 14 17 16 13 11 10 11 10 6
0 0 0 0 0 0 0 0 0 0 0 0 0 0 2 5 8 10 13 15 18 17 15 15 16 17 16 14 10 8 8 8 7 4 2 4 4 4 3 6 11 16 17 15 13 11 9 6 3
0 0 0 0 0 0 0 0 0 0 0 0 0 0 2 6 8 9 11 14 16 16 15 14 15 16 15 11 8 6 6 6 4 1 0 1 2 2 2 5 9 13 16 16 14 10 6 2 1
0 0 0 0 0 0 0 0 0 0 0 0 0 1 3 7 9 8 9 11 13 13 13 13 13 13 10 7 6 6 6 5 3 1 0 1 2 1 2 5 9 11 12 13 11 6 2 0 0
0 0 0 0 0 0 0 0 0 0 0 0 0 1 4 8 9 9 9 9 8 8 10 11 11 9 6 4 4 4 4 4 3 1 0 1 1 1 2 6 11 12 11 10 7 3 1 0 0
0 0 0 0 0 0 0 0 0 0 0 0 0 1 3 6 8 9 8 7 5 5 6 9 9 8 5 3 3 4 4 4 2 1 0 0 1 2 3 8 13 13 10 7 4 1 0 0 0
0 0 0 0 0 0 0 0 0 0 0 0 0 1 2 4 6 7 7 6 5 4 4 6 8 8 6 4 3 3 4 3 3 1 0 0 1 2 4 8 12 12 9 5 2 1 0 0 0
0 0 0 0 0 0 0 0 0 0 0 0 0 0 1 3 5 6 7 7 5 4 3 3 5 7 6 5 4 3 3 3 3 2 1 0 1 2 4 8 10 10 7 4 1 0 0 0 1
0 0 0 0 0 0 0 0 0 0 0 0 0 0 0 1 3 5 5 5 4 3 2 1 1 3 4 5 4 3 3 3 3 3 2 1 1 3 5 8 9 8 6 3 1 0 0 1 2
0 0 0 0 0 0 0 0 0 0 0 0 0 0 0 1 2 2 2 2 2 2 1 0 0 1 2 3 3 3 3 3 3 3 3 2 2 4 7 9 8 6 5 3 1 0 0 1 2
0 0 0 0 0 0 0 0 0 0 0 0 0 0 0 1 1 1 1 0 0 1 2 1 0 0 1 2 3 3 3 3 3 3 3 3 4 6 8 9 6 4 3 1 0 0 0 1 2
0 0 0 0 0 0 0 0 0 0 0 0 0 0 0 1 1 0 0 0 0 1 2 2 1 0 0 1 1 2 2 3 3 3 4 5 5 6 8 8 5 2 1 0 0 0 0 0 1
0 0 0 0 0 0 0 0 0 0 0 0 0 0 0 0 1 0 0 0 0 0 1 2 2 1 0 0 0 1 1 1 2 3 4 5 6 6 7 6 3 1 0 0 0 0 0 0 0
0 0 0 0 0 0 0 0 0 0 0 0 0 0 0 0 0 0 0 0 0 0 1 2 3 2 1 1 1 1 1 0 1 2 4 5 5 5 5 4 2 1 0 0 0 0 0 0 0
0 0 0 0 0 0 0 0 0 0 0 0 0 0 0 0 0 0 0 0 0 0 0 1 3 2 1 1 2 2 1 0 0 1 3 4 4 3 3 2 1 0 0 0 0 0 0 0 0
0 0 0 0 0 0 0 0 0 0 0 0 0 0 0 0 0 0 0 0 0 0 0 1 2 2 1 1 2 2 1 0 0 1 2 2 2 1 1 1 0 0 0 0 0 0 0 0 0
0 0 0 0 0 0 0 0 0 0 0 0 0 0 0 0 0 0 0 0 0 0 0 0 1 1 0 0 1 1 0 0 0 0 1 1 1 0 0 0 0 0 0 0 0 0 0 0 0
0 0 0 0 0 0 0 0 0 0 0 0 0 0 0 0 0 0 0 0 0 0 0 0 0 0 0 0 0 0 0 0 0 0 0 0 0 0 0 0 0 0 0 0 0 0 0 0 0
0 0 0 0 0 0 0 0 0 0 0 0 0 0 0 0 0 0 0 0 0 0 0 0 0 0 0 0 0 0 0 0 0 0 0 0 0 0 0 0 0 0 0 0 0 0 0 0 0
0 0 0 0 0 0 0 0 0 0 0 0 0 0 0 0 0 0 0 0 0 0 0 0 0 0 0 0 0 0 0 0 0 0 0 0 0 0 0 0 0 0 0 0 0 0 0 0 0
0 0 0 0 0 0 0 0 0 0 0 0 0 0 0 0 0 0 0 0 0 0 0 0 0 0 0 0 0 0 0 0 0 0 0 0 0 0 0 0 0 0 0 0 0 0 0 0 0
0 0 0 0 0 0 0 0 0 0 0 0 0 0 0 0 0 0 0 0 0 0 0 0 0 0 0 0 0 0 0 0 0 0 0 0 0 0 0 1 2 1 0 0 0 0 0 0 0
0 0 0 0 0 0 0 0 0 0 0 0 0 0 0 0 0 0 0 0 0 0 0 0 0 0 0 0 0 0 0 0 0 0 0 0 0 0 1 2 3 2 1 0 0 0 0 0 0
Wind_Speed
4 3 3 4 6 4 3 5 3 2 3 2 2 4 5 5 5 3 0 3 5 6 6 8 9 9 9 9 9 9 9 9 9 10 10 10 10 10 10 10 10 10 10 11 11 12 12 12 12
1 2 5 6 5 2 6 5 5 5 3 1 1 2 2 2 1 1 2 2 5 6 6 7 9 9 9 9 9 8 8 9 9 9 9 9 9 10 10 10 10 10 10 10 10 11 11 11 11
1 4 5 5 4 6 6 4 6 3 1 1 1 0 2 2 2 3 3 4 5 5 4 6 9 10 10 9 8 8 8 8 8 8 9 9 9 9 9 10 9 9 10 10 10 11 11 11 11
3 5 5 3 5 6 5 2 2 1 1 0 2 1 2 1 2 3 4 6 6 4 3 5 8 10 10 9 9 8 8 8 8 8 8 8 9 9 9 9 9 9 10 10 10 11 10 10 11
4 5 3 2 5 4 4 3 2 2 1 1 2 2 2 2 1 4 6 6 6 4 3 4 8 9 9 9 8 8 8 8 8 8 9 8 9 9 9 9 9 10 10 10 10 10 10 10 11
4 4 3 5 6 4 4 3 2 2 2 1 3 2 3 1 2 5 6 6 5 5 4 4 7 8 9 9 8 8 7 7 8 8 8 8 9 8 9 9 9 10 9 10 10 10 10 10 11
5 4 4 4 3 4 4 3 4 4 4 5 5 4 3 1 2 4 5 5 4 4 4 3 4 5 7 8 7 7 7 7 7 8 8 8 8 8 8 8 9 10 10 10 10 10 10 10 11
4 4 3 4 4 5 3 3 3 5 5 3 5 5 5 4 4 5 4 4 3 3 3 3 3 4 4 5 6 6 6 6 6 7 7 7 7 7 7 7 8 9 10 10 10 10 10 10 10
4 3 5 6 7 5 2 2 2 1 2 1 3 4 4 5 6 6 4 3 3 3 2 3 3 3 4 4 5 5 5 5 5 5 6 6 3 3 3 5 7 9 10 10 10 10 11 10 9
4 5 8 5 5 4 2 3 2 1 2 2 2 2 2 6 8 8 7 6 6 5 4 4 4 4 4 3 3 3 3 3 3 3 4 3 3 2 3 5 7 8 9 10 10 10 10 8 4
5 7 4 4 4 3 3 3 3 3 5 6 6 5 5 7 8 8 8 8 7 6 5 4 5 4 4 3 3 2 2 2 3 4 4 3 3 2 2 2 3 4 6 5 6 6 4 4 4
4 5 4 4 3 3 4 3 3 6 8 5 6 6 8 9 10 10 10 8 7 6 6 5 5 5 4 4 4 3 3 3 3 3 4 3 2 2 2 2 2 2 2 4 3 3 4 5 5
6 4 4 5 5 4 4 5 5 8 8 5 3 5 9 10 10 8 7 7 7 7 7 6 6 6 5 4 4 4 4 3 4 3 3 4 3 3 2 2 2 3 3 3 4 4 5 5 5
5 5 5 5 5 4 5 7 5 10 5 4 5 7 9 11 10 7 7 8 8 8 7 6 6 6 6 5 4 4 4 4 4 3 4 4 3 3 3 3 3 3 3 3 4 5 5 4 4
2 3 6 6 5 4 2 9 11 9 5 6 7 7 9 10 9 10 10 10 9 8 7 7 7 6 7 6 5 4 4 4 4 4 4 5 4 4 3 3 3 3 3 5 4 5 4 4 4
2 3 6 5 6 5 6 14 7 6 6 8 8 7 8 9 9 9 8 8 7 7 7 7 6 7 7 6 5 4 3 4 4 4 4 5 5 5 4 3 3 3 3 4 5 4 4 4 4
3 6 7 4 5 5 8 11 7 4 6 8 8 7 7 8 8 8 7 7 7 8 8 7 7 7 6 5 5 4 4 3 3 3 3 4 5 5 4 3 3 4 3 3 5 4 4 4 4
7 6 5 6 4 5 7 11 8 4 5 7 7 7 7 8 9 7 7 7 7 7 7 7 7 6 6 4 4 3 3 3 3 3 4 5 4 5 4 4 5 4 4 3 4 5 4 4 4
4 5 6 6 4 5 10 13 11 7 5 6 6 6 8 9 7 5 6 6 6 6 7 7 7 7 6 4 4 4 4 3 3 3 5 5 5 6 5 4 5 5 4 4 6 6 6 4 3
7 8 7 5 2 4 6 11 10 8 7 7 8 8 8 7 4 5 5 6 7 8 8 7 8 8 7 5 4 3 3 3 3 3 4 5 6 6 5 5 5 5 4 5 6 6 4 3 2
12 11 8 5 2 2 4 9 7 6 6 6 7 7 7 8 8 6 6 7 6 7 8 8 8 8 7 6 4 3 2 2 2 3 3 4 6 6 6 6 6 6 5 5 5 6 6 5 2
12 8 6 5 2 4 2 7 7 5 6 7 8 7 7 7 7 6 7 7 8 7 7 8 8 7 7 8 7 7 5 5 4 4 4 5 6 6 7 7 6 6 5 6 5 4 4 6 4
6 4 5 5 4 4 4 6 9 2 6 7 7 7 7 6 6 7 7 8 7 7 7 6 7 7 7 7 8 8 5 3 3 4 6 5 5 6 6 7 6 6 5 5 6 5 4 3 4
4 3 2 1 2 8 9 7 9 5 7 6 6 6 6 5 5 5 5 5 5 5 6 6 7 6 7 7 7 8 7 6 6 6 6 5 4 4 6 6 6 6 5 5 6 5 5 3 4
5 5 2 2 5 8 6 7 10 5 6 6 6 5 4 4 3 3 4 5 5 6 7 7 8 7 7 7 7 7 7 8 8 7 7 6 5 4 5 6 6 5 5 5 5 5 4 4 5
7 8 7 7 6 4 4 9 7 3 3 3 3 2 2 2 3 3 4 4 5 6 7 7 8 7 7 7 6 5 6 5 4 5 6 6 5 5 6 6 6 6 6 5 5 4 4 4 4
5 6 4 3 1 2 6 5 7 2 2 2 2 1 1 2 3 3 3 3 4 5 6 7 8 7 7 7 6 5 6 5 5 5 5 5 4 5 6 7 6 6 5 6 5 4 4 4 3
4 4 3 4 5 5 4 4 4 2 3 3 2 2 2 1 1 2 2 3 3 4 4 5 7 7 7 7 6 5 6 6 5 5 6 5 5 5 6 6 6 6 5 5 5 4 4 4 3
4 4 3 3 3 4 4 5 3 5 3 3 4 3 2 1 1 1 1 2 3 3 4 4 5 5 5 5 5 5 5 5 5 5 5 6 5 6 7 6 6 6 6 5 5 5 5 4 3
4 6 5 4 4 3 3 6 1 1 1 1 2 1 1 0 0 1 2 2 3 3 3 4 4 5 5 5 5 5 5 5 5 5 5 5 6 6 6 6 6 6 6 6 6 5 5 4 4
Wind_Direction
357 30 65 57 58 57 227 233 215 216 225 224 177 160 166 169 174 206 199 142 136 148 160 157 153 149 145 138 135 132 130 132 131 128 126 122 121 122 121 120 118 118 117 113 111 109 108 105 104
10 49 56 64 101 191 251 232 216 215 206 128 81 112 137 213 210 139 147 173 144 148 153 154 153 151 147 142 137 137 138 136 136 135 132 129 125 124 123 121 120 120 118 115 112 110 106 105 104
62 53 85 89 153 194 224 224 219 243 255 124 84 88 181 206 187 182 196 160 137 141 148 155 153 153 150 147 143 140 140 141 140 140 136 134 132 127 126 123 119 119 118 116 114 111 107 106 108
75 51 59 99 219 223 220 237 193 186 320 163 143 243 271 240 185 183 154 145 133 135 142 157 155 156 153 151 150 147 145 143 142 141 142 139 136 131 128 127 120 116 117 117 116 112 109 108 108
61 81 87 238 239 243 240 248 199 182 230 211 152 202 260 325 114 140 144 146 143 140 143 156 160 160 155 153 154 153 151 147 146 146 146 145 141 137 133 130 125 120 120 119 118 115 113 111 110
64 77 131 229 242 257 255 226 189 209 227 210 166 187 245 309 129 149 147 147 149 146 143 155 161 159 159 157 156 154 154 151 152 149 147 147 142 138 135 131 130 126 123 119 118 118 116 114 112
118 125 194 218 238 254 241 191 188 203 224 217 179 176 258 253 181 144 137 132 136 139 140 147 153 155 156 158 158 155 152 149 150 149 144 135 134 135 137 135 133 131 128 121 117 115 115 113 111
133 129 201 217 214 243 229 190 203 188 226 211 164 177 224 216 149 124 121 125 134 136 144 147 141 147 152 155 156 153 150 148 143 138 130 128 126 125 129 135 130 131 128 124 120 115 111 111 109
108 126 215 211 199 234 215 204 244 221 179 201 212 209 223 146 135 133 136 142 157 160 164 158 148 151 152 152 151 147 143 138 132 127 122 116 111 116 117 124 126 128 127 124 120 115 109 101 99
136 199 221 205 196 212 210 206 213 193 222 230 255 279 156 147 159 166 174 180 185 186 187 172 164 161 157 156 138 132 130 128 125 126 126 117 113 114 116 108 115 121 120 119 116 111 105 96 89
181 211 215 220 215 213 219 236 212 184 231 219 218 215 176 175 178 185 188 190 193 188 187 184 176 165 162 157 148 139 134 131 129 132 132 124 112 108 103 107 111 117 113 112 110 105 99 97 96
204 232 213 225 212 208 219 222 226 214 229 231 216 196 184 191 195 196 196 197 191 188 195 189 180 169 165 162 156 153 148 148 148 147 146 138 131 126 127 130 128 124 124 118 112 109 104 99 96
226 245 226 232 236 238 241 238 238 246 251 260 227 197 199 202 206 208 205 200 195 196 196 191 184 177 167 161 164 158 157 161 159 155 156 150 147 147 140 134 130 131 127 126 122 115 110 105 99
223 235 256 251 240 235 234 255 236 251 245 241 223 217 210 209 209 205 203 203 201 199 197 190 189 182 170 168 169 165 163 161 159 162 163 156 153 148 146 145 137 136 140 134 128 124 118 112 106
209 258 275 242 219 222 207 266 235 239 226 237 236 230 219 218 213 210 206 205 203 200 194 190 189 180 174 171 169 164 166 163 165 168 165 159 156 148 150 145 148 140 141 133 121 113 110 107 100
173 223 256 244 195 194 180 255 252 224 208 233 239 236 227 226 219 217 210 205 201 194 192 190 184 176 174 170 165 162 164 163 165 167 168 165 162 151 148 146 150 141 133 135 130 128 118 108 101
204 225 235 257 203 180 195 251 263 229 211 234 240 238 234 234 231 222 210 200 195 193 191 188 180 174 171 164 156 157 153 161 166 163 167 167 163 157 155 153 145 140 130 134 132 125 125 116 103
206 214 229 227 221 189 223 250 271 265 226 239 244 243 240 236 234 222 207 198 190 186 188 185 176 170 160 152 141 143 148 160 166 167 170 167 161 158 156 149 145 140 132 131 130 123 110 114 115
191 201 233 241 227 208 237 254 263 262 249 249 250 244 243 244 240 218 202 190 178 175 178 183 173 169 161 162 164 163 173 173 175 177 172 169 160 154 155 153 146 141 137 143 135 124 114 104 113
231 238 246 269 229 218 259 266 261 245 236 232 239 243 241 242 240 217 199 187 184 182 180 183 181 176 175 175 171 157 155 170 174 168 168 167 161 155 155 153 150 141 133 136 133 129 126 118 107
228 226 230 242 316 278 299 287 255 252 236 239 236 237 233 224 222 212 200 193 184 186 186 188 188 181 177 166 144 123 115 119 147 168 171 169 161 157 153 153 150 144 144 151 147 141 138 139 116
236 220 214 222 236 267 203 280 272 249 258 251 247 240 235 232 219 204 197 195 193 190 186 186 183 181 176 167 163 162 171 180 185 173 166 158 155 155 154 152 153 149 148 154 153 144 140 142 145
221 182 194 208 213 258 225 247 278 246 258 258 248 240 235 228 211 202 198 197 193 180 177 180 173 174 172 171 172 173 172 169 151 152 153 153 152 153 155 150 155 152 151 156 152 146 137 139 145
173 124 130 141 177 245 217 207 270 224 227 246 244 240 233 224 213 205 198 184 177 170 169 170 167 168 168 168 173 177 168 155 153 161 159 156 150 152 154 150 154 152 153 159 157 149 144 141 133
158 141 156 212 212 239 176 198 249 234 230 228 242 247 229 207 200 200 188 184 180 175 174 169 165 166 168 168 172 177 169 162 165 166 162 158 154 156 161 154 153 153 155 157 149 145 147 147 144
198 178 180 196 211 250 187 220 248 252 255 254 249 242 213 198 194 200 196 189 181 178 175 169 169 167 170 172 174 171 166 162 161 162 157 161 161 158 155 154 151 153 154 154 149 145 145 143 142
180 202 193 154 174 229 236 263 298 293 328 327 313 314 242 217 202 201 192 173 168 169 172 172 170 166 170 172 167 166 165 160 154 154 150 153 147 145 148 151 148 149 151 152 146 142 141 141 146
179 157 151 178 184 225 246 237 241 278 278 296 295 271 259 222 176 180 178 163 159 159 157 160 165 168 165 166 169 168 168 163 153 151 153 152 147 143 147 146 148 149 147 143 142 144 144 141 148
162 176 185 186 194 189 232 255 209 200 218 242 251 243 239 232 179 169 166 146 137 135 140 145 154 153 153 159 159 154 156 150 146 153 158 157 151 152 152 151 151 150 150 150 152 155 153 155 155
187 189 172 192 226 203 214 261 303 232 247 245 267 291 269 172 139 136 131 118 112 124 136 144 152 155 161 161 155 156 153 148 150 157 160 155 152 154 153 152 155 156 158 159 160 161 162 167 173